Theta_e
315 317 318 317 317 316 313 314 316 318 311 312 314 314 314 313 313 312 312 313 311 307 305 302 299 296 293 293 292 292 292 291 290 290 290 289 290 289 288 287 287 285 285 284
315 316 317 315 313 314 315 317 318 317 309 309 313 312 312 311 312 312 313 313 312 309 305 303 299 295 292 292 292 291 291 291 290 290 289 289 289 288 287 286 286 285 285 284
315 315 311 313 314 314 315 317 318 315 310 308 308 312 311 311 309 310 310 311 311 309 307 303 298 295 293 292 291 291 291 291 290 289 288 287 287 286 286 287 286 285 284 283
314 312 312 313 315 314 317 314 313 312 312 317 308 316 315 313 312 310 313 313 310 307 305 303 299 296 294 293 291 291 290 290 289 288 288 288 288 289 288 286 285 284 283 282
314 312 311 314 315 313 316 307 309 309 311 309 314 312 313 307 310 311 312 313 310 308 305 303 300 297 295 292 291 291 290 289 288 288 288 288 287 287 286 285 284 283 282 282
313 306 309 313 305 307 305 308 308 306 309 315 315 314 313 311 311 311 312 312 309 306 304 303 300 296 294 292 291 291 290 289 288 287 287 287 287 286 285 284 283 282 282 281
313 312 307 306 310 306 308 313 317 321 319 318 309 309 311 310 310 311 313 313 307 305 303 302 299 295 294 291 290 290 290 289 288 288 287 286 286 285 284 283 282 281 281 281
316 315 309 308 313 316 310 314 321 322 318 317 307 310 312 310 310 310 307 307 304 303 301 300 298 296 293 291 290 290 289 289 288 287 286 285 284 283 282 281 281 280 280 279
314 315 304 303 304 308 309 313 311 317 306 314 314 314 312 309 308 307 306 306 307 304 301 299 297 295 294 291 291 290 290 289 288 287 286 284 283 282 281 280 279 279 278 278
313 315 307 300 301 300 306 306 312 313 321 320 316 316 315 312 310 309 307 307 309 305 302 299 297 294 293 292 291 290 290 289 288 287 285 283 282 280 279 278 278 278 277 277
311 315 311 303 305 311 304 308 306 307 311 317 317 314 310 310 309 309 309 310 310 306 304 301 297 294 293 292 291 290 289 289 287 285 283 282 280 279 278 277 277 277 276 276
310 314 317 314 301 300 304 309 309 313 314 311 313 314 308 310 309 308 308 307 306 304 304 302 297 294 292 291 291 290 289 288 286 283 282 280 279 278 277 277 276 276 276 276
308 313 319 317 305 300 305 304 307 309 310 313 316 313 310 309 309 309 308 308 305 305 303 300 296 294 292 291 290 289 288 286 283 281 280 278 277 277 276 276 275 275 275 275
310 314 315 314 312 308 308 305 305 308 312 313 313 312 311 311 310 310 309 306 305 305 302 302 298 294 292 290 289 288 286 284 281 279 278 278 277 276 275 275 274 274 274 273
310 314 314 314 314 312 312 310 309 307 308 310 311 311 311 310 310 310 309 309 308 307 302 302 299 295 292 290 287 286 283 281 279 278 277 277 276 275 274 274 274 273 273 272
307 312 311 312 311 312 312 312 311 311 311 311 309 309 308 308 308 308 308 308 307 306 306 303 298 294 291 289 286 283 281 279 277 277 276 275 274 273 273 273 273 272 271 271
307 309 312 315 313 312 313 312 311 311 311 310 311 311 311 310 310 309 309 308 307 306 305 304 296 292 290 287 284 282 279 276 276 276 275 274 273 273 272 272 271 270 271 270
309 309 311 313 313 313 312 310 310 310 310 310 310 310 310 309 309 308 308 308 307 306 306 302 296 292 288 286 283 280 277 275 275 275 274 273 272 272 271 270 269 270 270 270
310 310 311 312 314 312 309 309 309 309 310 309 309 308 308 308 307 308 307 307 307 307 306 303 294 290 286 283 279 276 275 275 274 274 273 271 271 270 269 269 269 269 269 269
309 309 310 312 313 315 311 309 308 307 309 309 308 308 308 307 309 310 309 305 303 296 291 289 287 283 281 278 277 276 275 274 274 273 271 270 270 269 269 268 268 268 267 268
309 311 311 312 314 314 310 308 305 311 312 309 308 308 308 308 308 308 297 295 290 288 285 282 281 280 278 276 276 276 274 274 273 271 269 269 268 269 268 268 268 268 267 267
313 313 312 311 313 314 310 309 309 311 311 311 310 306 305 305 304 304 294 290 286 284 282 280 279 278 276 276 276 275 274 272 270 269 268 268 268 267 267 267 267 266 266 267
314 312 313 312 313 310 310 310 310 309 310 310 309 308 305 305 303 301 292 287 286 283 281 279 277 275 275 275 275 275 271 269 268 267 267 267 267 267 267 266 266 267 266 268
312 311 312 312 311 310 309 309 309 309 309 309 308 306 302 305 303 298 293 287 283 281 279 278 276 276 274 274 274 272 268 268 267 267 266 266 266 266 265 266 266 266 267 268
304 305 308 308 306 309 310 309 306 305 304 303 303 302 304 304 301 300 295 289 284 281 279 277 277 276 274 272 270 268 267 268 267 267 266 266 265 266 265 265 265 266 267 268
301 304 305 306 305 307 308 308 308 308 307 307 306 305 303 300 303 302 298 290 284 281 278 277 276 275 272 270 268 267 267 267 267 266 265 265 265 265 264 265 265 265 265 267
Wind_Speed
1 7 16 17 17 13 7 8 17 14 4 5 18 22 25 22 19 24 24 21 20 21 19 26 30 31 30 29 28 26 25 22 19 16 12 9 8 8 8 9 9 8 8 10
4 16 19 6 6 9 10 13 22 14 3 8 15 22 22 22 25 24 25 24 21 18 16 21 27 31 32 31 29 28 26 24 22 17 14 10 9 8 8 9 9 9 11 12
17 9 3 9 10 10 12 18 17 11 4 8 10 16 10 8 15 20 23 23 19 17 16 17 23 31 32 33 34 32 28 25 23 20 16 13 10 10 9 8 6 8 11 12
10 5 11 9 11 14 14 8 12 8 5 12 3 18 13 14 14 12 22 14 14 15 14 15 21 29 36 36 32 31 28 26 25 24 20 16 13 11 8 6 8 10 12 12
6 5 7 11 9 12 6 2 4 3 8 6 12 10 9 2 6 17 17 16 12 13 14 17 18 27 31 32 33 32 28 27 25 26 21 17 15 12 10 9 11 12 12 13
7 1 4 3 3 1 8 3 1 2 4 10 18 18 5 5 7 8 13 14 9 10 12 13 17 21 25 29 31 32 31 28 27 26 22 20 17 14 11 10 10 9 10 12
4 9 3 3 4 3 4 3 5 6 6 15 2 8 15 14 12 14 18 15 5 8 9 11 14 18 23 30 32 32 33 32 28 26 23 21 18 15 13 11 9 10 12 13
5 11 12 9 12 4 11 6 6 14 15 25 5 11 11 11 16 20 7 10 4 7 8 10 13 19 24 29 33 35 36 34 31 28 24 19 16 13 12 11 10 11 13 14
9 10 2 1 2 3 8 8 2 6 2 9 13 21 7 9 13 8 15 11 15 12 10 12 13 21 24 29 34 38 36 34 32 28 22 18 15 13 12 11 10 13 12 13
2 8 4 3 2 1 3 4 4 3 7 19 27 30 19 12 15 12 11 13 15 9 12 12 13 20 24 27 30 34 37 36 31 27 22 17 15 14 12 12 12 12 13 15
5 9 5 5 12 16 5 6 5 2 4 10 20 13 4 5 4 8 13 13 9 9 12 12 13 19 22 23 27 32 34 34 30 26 21 17 15 13 12 11 10 12 14 14
9 3 12 19 1 3 2 10 15 8 8 11 11 28 3 3 5 4 3 5 7 9 12 11 12 18 22 25 27 31 31 31 29 25 20 17 14 13 10 10 11 11 13 13
9 4 5 11 4 1 7 6 10 13 14 32 11 29 13 14 15 11 12 12 8 14 13 12 12 15 20 23 26 29 31 30 26 23 20 17 13 11 10 10 10 10 11 13
12 7 14 21 18 3 6 10 16 22 18 21 24 35 39 33 31 26 20 13 15 16 13 15 15 15 19 22 26 29 30 29 26 24 20 16 14 12 10 9 9 10 11 14
6 11 14 23 25 21 23 21 21 25 27 25 35 28 34 35 33 27 23 18 25 22 13 18 16 15 15 21 25 28 29 28 26 23 19 16 14 11 7 7 8 10 11 14
7 20 24 30 34 32 29 22 31 31 38 33 29 32 35 35 36 33 36 28 27 25 25 21 17 14 16 24 28 30 29 27 26 22 19 16 13 10 8 6 8 10 11 13
9 11 14 21 25 19 15 36 34 41 34 32 32 37 35 34 31 30 34 23 22 25 23 16 17 18 17 27 33 33 32 31 25 21 19 16 13 10 7 7 7 10 11 12
14 16 12 10 7 16 21 23 32 39 37 32 30 34 36 35 34 27 25 19 25 24 23 13 13 13 22 28 31 32 34 30 27 22 20 17 13 10 7 6 6 8 8 11
25 20 9 8 15 11 2 15 25 22 30 26 32 35 36 37 14 30 18 20 23 24 19 9 11 17 24 30 32 32 30 28 25 22 20 17 13 10 7 5 4 6 9 12
26 24 17 8 9 15 16 28 28 8 9 30 26 28 29 24 14 21 22 6 11 4 3 8 17 22 24 26 32 33 28 26 24 23 19 16 13 9 6 3 4 6 8 11
7 11 22 22 20 12 12 11 5 13 19 29 29 27 22 17 18 21 2 2 0 1 9 18 20 19 25 30 33 27 25 22 22 21 19 15 12 8 5 2 3 6 8 10
18 11 10 14 16 23 18 19 24 28 31 24 21 11 8 12 14 12 7 3 2 7 11 15 14 18 23 30 32 27 23 24 24 22 18 16 12 9 6 2 1 4 6 9
21 23 22 22 17 17 17 30 33 32 30 25 18 12 14 13 13 11 9 12 15 15 13 18 19 19 24 25 26 26 24 24 23 22 19 17 13 9 6 3 2 2 4 8
20 20 21 26 25 20 17 18 20 22 24 23 21 10 8 15 11 9 7 9 12 15 15 20 21 17 20 22 21 23 28 25 23 18 16 15 12 9 5 4 2 1 3 7
10 12 8 9 15 21 24 17 12 12 12 13 16 10 16 14 14 15 12 12 13 14 15 23 18 18 24 25 26 29 29 32 25 18 13 11 9 8 6 4 2 1 2 8
19 22 18 20 22 17 20 22 17 16 18 20 18 18 16 14 21 15 15 14 15 16 17 17 23 26 27 26 27 29 31 33 28 20 15 11 10 8 7 5 3 3 2 6
Wind_Direction
134 223 234 241 227 269 269 260 266 267 195 235 250 256 271 282 274 262 267 259 248 238 232 215 207 203 199 197 195 196 194 193 190 193 195 209 212 216 240 245 267 270 291 306
185 238 252 243 231 230 237 259 264 283 200 213 273 269 272 266 266 266 268 265 256 246 231 212 205 202 200 196 198 198 198 195 196 198 201 199 202 226 236 254 267 275 297 307
230 245 79 199 218 211 234 238 258 260 313 226 283 271 245 259 254 272 263 258 257 236 226 208 203 204 202 200 199 198 198 197 198 201 202 208 226 246 255 257 273 291 296 297
242 261 229 213 234 203 243 234 248 268 285 275 2 289 277 272 264 249 270 256 240 225 217 203 203 205 206 204 198 198 198 197 200 201 202 204 211 225 233 251 270 280 282 290
221 182 198 216 236 179 244 111 181 201 250 304 252 269 274 134 251 259 263 266 229 226 206 199 202 207 208 200 197 196 197 199 202 203 205 205 216 231 241 259 274 282 295 303
259 156 215 213 84 183 135 119 161 162 251 255 257 232 260 190 212 244 259 265 210 196 200 202 199 202 204 200 198 198 197 199 200 201 203 207 213 219 232 245 262 287 295 284
206 221 172 184 151 135 193 180 285 256 239 267 131 255 263 277 237 236 250 265 164 182 188 191 191 194 195 196 196 199 198 200 198 199 203 207 214 218 232 242 248 258 268 273
223 257 185 177 222 218 187 215 204 274 282 289 109 251 276 229 245 251 277 260 207 208 208 206 201 198 197 196 197 200 199 199 198 198 201 205 208 216 226 235 244 257 261 270
194 249 108 296 101 184 157 197 317 283 100 286 256 258 229 203 238 242 251 258 252 228 214 212 204 206 199 200 201 201 200 198 199 198 198 200 203 213 227 239 246 255 260 269
231 276 145 115 146 81 217 118 136 198 271 270 280 290 284 234 239 234 247 240 253 220 212 212 207 208 209 208 204 204 201 197 195 194 194 196 202 213 226 236 243 254 266 269
165 204 209 150 201 207 177 201 203 272 226 266 281 271 148 161 152 203 224 236 252 242 229 214 210 211 212 211 206 202 199 195 189 187 187 192 201 215 229 240 251 260 269 278
205 192 235 240 95 336 314 233 207 225 224 236 267 273 114 249 210 232 244 265 258 237 218 212 207 207 209 207 204 204 196 191 183 179 184 191 200 216 227 242 253 266 279 288
173 210 242 259 222 217 208 198 230 237 257 249 223 260 210 277 275 273 254 259 233 236 224 218 212 209 211 210 205 198 192 187 174 173 181 190 198 210 226 245 262 273 289 293
167 174 223 242 245 132 184 212 224 223 236 255 239 256 275 275 271 281 279 258 241 237 225 226 223 218 214 207 196 191 189 181 169 173 180 186 196 207 225 245 263 276 289 294
153 236 237 247 263 265 271 270 251 236 242 247 259 265 266 275 280 278 281 285 275 270 234 232 228 216 209 198 188 184 179 172 170 172 176 185 193 206 223 253 275 291 295 290
197 237 235 255 263 266 259 251 255 260 259 255 254 266 265 269 276 283 276 269 272 273 262 244 225 208 197 192 184 177 172 167 169 172 175 181 185 197 223 255 277 287 288 289
209 221 221 240 234 248 258 243 246 252 255 255 263 255 263 266 264 262 270 282 273 263 264 252 208 202 194 186 177 176 166 161 165 167 171 179 185 198 217 246 270 283 288 303
227 228 229 251 237 229 233 235 236 244 251 256 256 260 265 264 264 271 274 267 266 268 268 247 206 194 184 175 174 165 157 157 160 163 172 179 186 194 211 240 267 288 303 304
222 225 231 227 224 252 227 230 223 233 249 252 252 262 259 263 300 279 280 253 258 264 270 260 191 174 166 166 162 157 151 153 156 165 170 175 182 192 207 229 263 298 308 307
224 222 220 205 229 234 229 238 239 231 255 255 243 246 256 275 281 278 292 231 247 286 148 148 144 142 152 158 158 155 155 157 163 165 164 171 178 186 196 225 290 305 308 306
183 206 221 230 242 243 219 223 98 202 241 243 246 251 251 242 234 251 129 231 51 151 141 139 147 157 157 160 160 155 154 162 160 156 159 161 167 173 184 213 299 310 315 310
214 195 208 228 240 244 222 220 216 236 247 247 254 241 207 223 238 230 157 110 257 168 155 160 149 154 158 164 161 154 158 155 155 153 153 158 160 165 174 195 326 333 320 326
237 229 237 220 231 224 214 220 225 235 250 256 254 248 225 233 231 223 191 184 186 183 174 168 153 153 157 168 162 150 150 152 153 151 155 155 156 164 164 153 61 13 341 346
248 254 252 257 253 242 241 240 244 240 241 253 260 265 201 234 238 217 202 193 182 174 171 163 159 156 158 160 155 147 148 151 152 151 153 155 152 153 139 133 117 104 7 333
279 312 299 300 296 306 294 278 266 258 258 271 267 248 245 245 241 228 218 199 191 175 167 166 170 165 158 155 145 151 154 155 150 150 153 150 144 140 134 110 108 71 1 323
272 276 273 268 276 274 281 288 293 285 265 261 265 268 258 251 261 241 230 202 183 175 165 168 170 163 157 155 149 153 161 158 151 146 151 156 148 143 130 125 106 40 317 342